When you browse on this site, cookies collect data to enhance your experience and personalize the content and advertising you see.
Visit our Privacy Policy to learn more. By continuing to use the site, you agree to this use of cookies and data.

Stündliche Wetter Vanadzor

Heute, 6 Juli, Montag

Zeit Temperatur Niederschläge Wind Luftdruck Luftfeuchtigkeit
00:00 +14°C° 0 mm 1 m/S 633 mmHg 81%
01:00 +14°C° 0 mm 1 m/S 633 mmHg 80%
02:00 +13°C° 0 mm 1 m/S 633 mmHg 79%
03:00 +13°C° 0 mm 1 m/S 633 mmHg 74%
04:00 +14°C° 0 mm 1 m/S 633 mmHg 75%
05:00 +14°C° 0 mm 1 m/S 633 mmHg 76%
06:00 +15°C° 0 mm 1 m/S 634 mmHg 77%
07:00 +18°C° 0 mm 1 m/S 634 mmHg 72%
08:00 +18°C° 0 mm 2 m/S 635 mmHg 67%
09:00 +20°C° 0 mm 2 m/S 635 mmHg 62%
10:00 +21°C° 0 mm 2 m/S 635 mmHg 61%
11:00 +23°C° 0 mm 2 m/S 635 mmHg 60%
12:00 +22°C° 0 mm 3 m/S 635 mmHg 59%
13:00 +24°C° 0.1 mm 3 m/S 635 mmHg 60%
14:00 +24°C° 0.1 mm 3 m/S 635 mmHg 60%
15:00 +24°C° 0.1 mm 3 m/S 634 mmHg 61%
16:00 +24°C° 0.2 mm 2 m/S 634 mmHg 65%
17:00 +23°C° 0.2 mm 2 m/S 634 mmHg 69%
18:00 +23°C° 0.2 mm 2 m/S 634 mmHg 73%
19:00 +20°C° 0 mm 2 m/S 634 mmHg 74%
20:00 +19°C° 0 mm 1 m/S 634 mmHg 76%
21:00 +16°C° 0 mm 1 m/S 633 mmHg 77%
22:00 +16°C° 0 mm 1 m/S 633 mmHg 75%
23:00 +15°C° 0 mm 1 m/S 633 mmHg 73%

Morgen, 7 Juli, Dienstag

Zeit Temperatur Niederschläge Wind Luftdruck Luftfeuchtigkeit
00:00 +15°C° 0 mm 2 m/S 633 mmHg 71%
01:00 +15°C° 0 mm 1 m/S 633 mmHg 70%
02:00 +15°C° 0 mm 1 m/S 633 mmHg 70%
03:00 +14°C° 0 mm 1 m/S 633 mmHg 69%
04:00 +15°C° 0 mm 1 m/S 633 mmHg 70%
05:00 +16°C° 0 mm 1 m/S 633 mmHg 71%
06:00 +16°C° 0 mm 1 m/S 633 mmHg 73%
07:00 +19°C° 0 mm 1 m/S 634 mmHg 68%
08:00 +21°C° 0 mm 1 m/S 634 mmHg 63%
09:00 +23°C° 0 mm 1 m/S 635 mmHg 58%
10:00 +24°C° 0 mm 2 m/S 635 mmHg 57%
11:00 +24°C° 0 mm 2 m/S 635 mmHg 57%
12:00 +25°C° 0 mm 2 m/S 635 mmHg 56%
13:00 +25°C° 0.3 mm 2 m/S 635 mmHg 57%
14:00 +26°C° 0.3 mm 2 m/S 634 mmHg 58%
15:00 +26°C° 0.3 mm 2 m/S 634 mmHg 59%
16:00 +25°C° 0.5 mm 2 m/S 634 mmHg 64%
17:00 +25°C° 0.5 mm 2 m/S 634 mmHg 69%
18:00 +24°C° 0.5 mm 1 m/S 633 mmHg 74%
19:00 +22°C° 0.1 mm 1 m/S 633 mmHg 76%
20:00 +20°C° 0.1 mm 1 m/S 633 mmHg 78%
21:00 +18°C° 0.1 mm 1 m/S 633 mmHg 81%
22:00 +18°C° 0 mm 1 m/S 633 mmHg 80%
23:00 +16°C° 0 mm 1 m/S 633 mmHg 79%

übermorgen, 8 Juli, Mittwoch

Zeit Temperatur Niederschläge Wind Luftdruck Luftfeuchtigkeit
00:00 +16°C° 0 mm 1 m/S 633 mmHg 78%
01:00 +16°C° 0 mm 1 m/S 633 mmHg 78%
02:00 +16°C° 0 mm 1 m/S 632 mmHg 77%
03:00 +15°C° 0 mm 1 m/S 632 mmHg 77%
04:00 +16°C° 0 mm 1 m/S 633 mmHg 77%
05:00 +18°C° 0 mm 1 m/S 633 mmHg 77%
06:00 +19°C° 0 mm 1 m/S 633 mmHg 77%
07:00 +20°C° 0 mm 1 m/S 634 mmHg 72%
08:00 +22°C° 0 mm 1 m/S 634 mmHg 67%
09:00 +24°C° 0 mm 1 m/S 635 mmHg 62%
10:00 +25°C° 0.2 mm 1 m/S 635 mmHg 61%
11:00 +26°C° 0.2 mm 2 m/S 635 mmHg 59%
12:00 +27°C° 0.2 mm 2 m/S 635 mmHg 58%
13:00 +27°C° 0.9 mm 2 m/S 634 mmHg 59%
14:00 +26°C° 0.9 mm 2 m/S 634 mmHg 61%
15:00 +26°C° 0.9 mm 2 m/S 634 mmHg 63%
16:00 +26°C° 0.6 mm 2 m/S 634 mmHg 67%
17:00 +25°C° 0.6 mm 2 m/S 634 mmHg 72%
18:00 +24°C° 0.6 mm 2 m/S 634 mmHg 76%
19:00 +21°C° 0.2 mm 2 m/S 634 mmHg 78%
20:00 +20°C° 0.2 mm 2 m/S 634 mmHg 80%
21:00 +19°C° 0.2 mm 1 m/S 634 mmHg 81%
22:00 +18°C° 0.3 mm 1 m/S 634 mmHg 82%
23:00 +18°C° 0.3 mm 1 m/S 634 mmHg 82%

9 Juli, Donnerstag

Zeit Temperatur Niederschläge Wind Luftdruck Luftfeuchtigkeit
00:00 +16°C° 0.3 mm 1 m/S 634 mmHg 82%
01:00 +16°C° 0 mm 1 m/S 634 mmHg 83%
02:00 +15°C° 0 mm 1 m/S 634 mmHg 83%
03:00 +15°C° 0 mm 1 m/S 634 mmHg 84%
04:00 +16°C° 0 mm 1 m/S 634 mmHg 84%
05:00 +16°C° 0 mm 0 m/S 635 mmHg 83%
06:00 +16°C° 0 mm 0 m/S 635 mmHg 83%
07:00 +20°C° 0.1 mm 1 m/S 636 mmHg 78%
08:00 +22°C° 0.1 mm 1 m/S 636 mmHg 74%
09:00 +23°C° 0.1 mm 1 m/S 637 mmHg 69%
10:00 +24°C° 0.4 mm 1 m/S 637 mmHg 66%
11:00 +25°C° 0.4 mm 1 m/S 637 mmHg 63%
12:00 +26°C° 0.4 mm 2 m/S 637 mmHg 59%
13:00 +26°C° 0.7 mm 2 m/S 637 mmHg 60%
14:00 +26°C° 0.7 mm 2 m/S 637 mmHg 60%
15:00 +26°C° 0.7 mm 2 m/S 637 mmHg 60%
16:00 +25°C° 0.7 mm 2 m/S 637 mmHg 66%
17:00 +24°C° 0.7 mm 2 m/S 637 mmHg 71%
18:00 +23°C° 0.7 mm 1 m/S 637 mmHg 77%
19:00 +21°C° 0.2 mm 1 m/S 636 mmHg 81%
20:00 +19°C° 0.2 mm 1 m/S 636 mmHg 84%
21:00 +18°C° 0.2 mm 1 m/S 636 mmHg 88%
22:00 +18°C° 0.1 mm 1 m/S 636 mmHg 87%
23:00 +18°C° 0.1 mm 1 m/S 637 mmHg 86%

10 Juli, Freitag

Zeit Temperatur Niederschläge Wind Luftdruck Luftfeuchtigkeit
00:00 +18°C° 0.1 mm 1 m/S 637 mmHg 85%
01:00 +16°C° 0.1 mm 1 m/S 636 mmHg 86%
02:00 +16°C° 0.1 mm 1 m/S 636 mmHg 86%
03:00 +15°C° 0.1 mm 1 m/S 636 mmHg 87%
04:00 +16°C° 0.1 mm 1 m/S 636 mmHg 86%
05:00 +18°C° 0.1 mm 1 m/S 637 mmHg 86%
06:00 +17°C° 0.1 mm 0 m/S 637 mmHg 86%
07:00 +20°C° 0.2 mm 1 m/S 638 mmHg 81%
08:00 +22°C° 0.2 mm 1 m/S 638 mmHg 76%
09:00 +24°C° 0.2 mm 2 m/S 638 mmHg 70%
10:00 +24°C° 0.3 mm 2 m/S 638 mmHg 69%
11:00 +25°C° 0.3 mm 2 m/S 638 mmHg 68%
12:00 +25°C° 0.3 mm 2 m/S 638 mmHg 66%
13:00 +25°C° 0.7 mm 2 m/S 638 mmHg 67%
14:00 +25°C° 0.7 mm 2 m/S 638 mmHg 68%
15:00 +25°C° 0.7 mm 2 m/S 637 mmHg 69%
16:00 +25°C° 0.7 mm 2 m/S 637 mmHg 72%
17:00 +24°C° 0.7 mm 2 m/S 637 mmHg 75%
18:00 +23°C° 0.7 mm 2 m/S 637 mmHg 78%
19:00 +22°C° 1.1 mm 1 m/S 637 mmHg 81%
20:00 +20°C° 1.1 mm 1 m/S 637 mmHg 83%
21:00 +19°C° 1.1 mm 1 m/S 637 mmHg 85%
22:00 +18°C° 0.4 mm 1 m/S 637 mmHg 86%
23:00 +18°C° 0.4 mm 1 m/S 637 mmHg 87%

11 Juli, Samstag

Zeit Temperatur Niederschläge Wind Luftdruck Luftfeuchtigkeit
00:00 +18°C° 0.4 mm 1 m/S 637 mmHg 87%
01:00 +16°C° 0.3 mm 1 m/S 637 mmHg 89%
02:00 +16°C° 0.3 mm 1 m/S 637 mmHg 90%
03:00 +15°C° 0.3 mm 1 m/S 636 mmHg 91%
04:00 +16°C° 0.2 mm 1 m/S 636 mmHg 93%
05:00 +16°C° 0.2 mm 1 m/S 637 mmHg 94%
06:00 +16°C° 0.2 mm 1 m/S 637 mmHg 96%
07:00 +18°C° 0.1 mm 1 m/S 637 mmHg 95%
08:00 +18°C° 0.1 mm 2 m/S 637 mmHg 93%
09:00 +18°C° 0.1 mm 2 m/S 637 mmHg 92%
10:00 +19°C° 0.4 mm 2 m/S 636 mmHg 91%
11:00 +19°C° 0.4 mm 2 m/S 636 mmHg 89%
12:00 +20°C° 0.4 mm 2 m/S 636 mmHg 88%
13:00 +20°C° 0.4 mm 2 m/S 636 mmHg 86%
14:00 +21°C° 0.4 mm 2 m/S 636 mmHg 84%
15:00 +21°C° 0.4 mm 2 m/S 636 mmHg 82%
16:00 +21°C° 0.7 mm 2 m/S 636 mmHg 85%
17:00 +20°C° 0.7 mm 2 m/S 636 mmHg 88%
18:00 +19°C° 0.7 mm 2 m/S 636 mmHg 90%
19:00 +19°C° 1 mm 2 m/S 636 mmHg 92%
20:00 +19°C° 1 mm 1 m/S 636 mmHg 94%
21:00 +18°C° 1 mm 1 m/S 636 mmHg 96%
22:00 +18°C° 0.4 mm 1 m/S 636 mmHg 96%
23:00 +16°C° 0.4 mm 1 m/S 636 mmHg 96%
Mehr zeigen